[[{"header":{"parameterUnit":"m.s-1","parameterCategory":1,"la1":30.2991,"la2":30.254,"lo1":-89.0895,"lo2":-89.0444,"dy":0.0017,"dx":0.0017,"nx":28,"ny":28,"refTime":"2026-01-29T09:00:00:Z","depth":0,"parameterNumber":2,"parameterNumberName":"U-component_of_WINDS"},"data":[0,0,0,0,0,0,0,0,0,0,0,0,0,0,0,0,0,0,0,0,0,0,0,0,0,0,0,0,0,0,0,0,0,0,0,0,0,0,0,0,0,0,0,0,0,0,0,0,0,0,0,0,0,0,0,0,0,0,2.8997,2.8997,0,2.8988,2.8988,2.8988,2.8945,2.8944,2.8943,2.8942,2.8931,2.8932,2.8932,0,0,0,0,0,0,0,0,0,0,0,0,0,2.8978,2.8979,2.8997,2.8997,2.8997,2.8988,2.8988,2.8987,2.8945,2.8944,2.8942,2.8941,2.8931,2.8932,2.8932,0,0,0,0,0,0,0,0,0,0,0,0,0,2.8979,2.8979,2.8997,2.8974,2.8972,2.8988,2.8988,2.8987,2.8945,2.8944,2.8942,2.8941,2.8931,2.8932,2.8933,2.8969,0,0,2.8936,2.8936,0,0,0,0,0,0,0,0,2.8979,2.898,2.8978,2.8976,2.8974,2.8966,2.8977,2.8981,2.8945,2.8955,2.8942,2.894,2.8944,2.8944,2.8945,2.8968,2.8968,2.8936,2.8936,2.8937,2.8937,0,0,0,0,0,0,0,2.8979,2.898,2.8993,2.8978,2.8975,2.8965,2.8963,2.8978,2.8958,2.8954,2.8951,2.8951,2.8942,2.8944,2.8945,2.8968,2.8936,2.8937,2.8937,2.8938,2.9022,2.9024,0,0,0,0,0,0,2.8982,2.898,2.8993,2.8993,2.8973,2.8966,2.8965,2.897,2.8958,2.8955,2.8952,2.8949,2.8943,2.8944,2.8944,2.8986,2.8937,2.8938,2.8938,2.902,2.9022,2.9024,0,0,0,0,0,0,2.8982,2.8984,2.8994,2.8986,2.8986,2.8968,2.8974,2.897,2.8972,2.8956,2.8952,2.8958,2.8942,2.8943,2.8963,2.8985,2.8938,2.8939,2.9018,2.9021,2.9023,2.9071,0,0,0,0,0,0,2.8982,2.8984,2.8997,2.8986,2.8987,2.9013,2.8976,2.8971,2.8974,2.897,2.896,2.8957,2.8941,2.8962,2.8964,2.8986,2.894,2.9016,2.902,2.9023,2.9068,2.9075,2.9081,0,0,0,0,0,2.8981,2.9011,2.8998,2.9,2.9003,2.9015,2.9015,2.8996,2.8976,2.899,2.898,2.8958,2.8983,2.8965,2.8967,2.8989,2.9015,2.9019,2.9022,2.9064,2.9074,2.9081,0,0,0,0,0,0,2.9023,2.9009,2.8995,2.9021,2.902,2.9007,2.9023,2.9006,2.9009,2.9005,2.8981,2.8979,2.9004,2.8999,2.8978,2.9024,2.8995,2.9,2.9027,2.9035,2.9042,2.9042,2.8941,0,0,0,0,0,2.9036,2.9047,2.9033,2.9058,2.9058,2.9041,2.9046,2.9031,2.9028,2.9027,2.9019,2.9017,2.9024,2.903,2.9036,2.9067,2.9065,2.9084,2.9091,2.9096,2.91,2.9118,2.9126,2.9036,2.9036,2.9036,0,0,2.9062,2.9055,2.9063,2.9067,2.9063,2.9075,2.9041,2.9054,2.9063,2.9029,2.9048,2.9043,2.9039,2.9066,2.9077,2.9062,2.9125,2.9101,2.9106,2.9106,2.9122,2.9131,2.9138,2.9039,2.9038,2.9038,0,0,2.9114,2.911,2.9131,2.913,2.9126,2.9115,2.912,2.9111,2.9106,2.9126,2.9101,2.9111,2.9125,2.9123,2.9124,2.918,2.916,2.9183,2.9218,2.9236,2.9243,2.9249,2.9269,2.9277,2.9187,2.9187,2.9187,0,2.9146,2.9163,2.9144,2.916,2.9163,2.9134,2.9156,2.9155,2.9153,2.9156,2.9139,2.9157,2.9152,2.9179,2.9193,2.9195,2.92,2.9183,2.9244,2.925,2.9255,2.9274,2.9282,2.919,2.9189,2.9189,2.9189,0,2.9204,2.9216,2.9233,2.9234,2.9239,2.9257,2.9241,2.9248,2.9235,2.9226,2.9247,2.9241,2.9246,2.9251,2.9237,2.9276,2.9267,2.9248,2.9218,2.9267,2.9284,2.9291,2.9194,2.9193,2.9192,2.9191,0,0,2.928,2.9272,2.9278,2.9279,2.9274,2.9283,2.9302,2.9307,2.9314,2.9315,2.933,2.9343,2.9326,2.9327,2.9313,2.9329,2.9374,2.9307,2.9307,2.932,2.9418,2.9432,2.9441,2.9362,2.9363,2.9364,2.9418,0,2.9331,2.9361,2.9345,2.9378,2.9389,2.9364,2.938,2.9379,2.9372,2.9381,2.9373,2.9383,2.9359,2.936,2.9374,2.9366,2.9393,2.9362,2.9375,2.9376,2.9376,2.945,2.9465,2.9516,2.9425,2.9426,2.9427,0,2.9393,2.9398,2.9432,2.9427,2.9431,2.9445,2.945,2.946,2.9459,2.9452,2.9456,2.9439,2.9457,2.9428,2.9453,2.9432,2.9437,2.9434,2.9435,2.9435,2.9404,2.9452,2.9532,2.954,2.9437,2.9436,2.9436,0,2.9446,2.9461,2.9483,2.9485,2.9479,2.949,2.9489,2.9486,2.9491,2.9496,2.9499,2.9506,2.9509,2.9515,2.9501,2.9481,2.9528,2.9498,2.9523,2.9524,2.9533,2.9532,2.9615,2.9537,2.9537,2.9537,2.9537,0,2.9504,2.9526,2.9507,2.9521,2.9545,2.9528,2.9552,2.9548,2.9546,2.9559,2.9538,2.955,2.9531,2.9542,2.9531,2.9553,2.9555,2.9551,2.9547,2.9552,2.9553,2.9554,2.955,2.9539,2.9539,2.9538,2.9538,0,2.9566,2.9555,2.9578,2.9572,2.9571,2.9589,2.9584,2.9596,2.9589,2.9606,2.9608,2.9596,2.9608,2.9595,2.9605,2.9598,2.9629,2.9621,2.9629,2.9627,2.9653,2.9651,2.9739,2.975,2.9665,2.9666,2.9667,0,2.9603,2.962,2.9616,2.9624,2.9623,2.9635,2.9641,2.9625,2.9632,2.9634,2.9647,2.9657,2.9664,2.9685,2.9677,2.9685,2.9677,2.9707,2.9678,2.9683,2.9677,2.9676,2.9678,2.9713,2.9714,2.9715,2.9715,0,2.9671,2.9665,2.9674,2.9682,2.969,2.9695,2.9699,2.9706,2.969,2.9699,2.9711,2.9717,2.9729,2.974,2.9746,2.9745,2.9728,2.9725,2.9731,2.9736,2.974,2.9739,2.9645,2.9723,2.9722,2.9721,2.9721,2.9721,2.9722,2.9736,2.9736,2.9747,2.9749,2.9753,2.9765,2.976,2.977,2.9779,2.977,2.9785,2.9786,2.9793,2.9794,2.9806,2.9793,2.9802,2.9804,2.9806,2.981,2.974,2.9807,2.9807,2.9806,2.9806,2.9806,0,2.9788,2.9788,2.9798,2.9805,2.9814,2.9799,2.9803,2.9812,2.9826,2.9828,2.9836,2.9851,2.9862,2.9856,2.9866,2.9877,2.9869,2.988,2.9878,2.9879,2.9821,2.9815,2.9886,2.9886,2.9886,2.9886,2.9886,2.9886,2.9824,2.9847,2.9842,2.9866,2.9865,2.988,2.9884,2.9889,2.989,2.9908,2.9918,2.9914,2.9914,2.9923,2.9933,2.9931,2.9935,2.9949,2.9944,2.989,2.9882,2.9875,2.9869,2.995,2.995,3.0,3.0001,3.0001]},{"header":{"parameterUnit":"m.s-1","parameterCategory":1,"la1":30.2991,"la2":30.254,"lo1":-89.0895,"lo2":-89.0444,"dy":0.0017,"dx":0.0017,"nx":28,"ny":28,"refTime":"2026-01-29T09:00:00:Z","depth":0,"parameterNumber":3,"parameterNumberName":"V-component_of_WINDS"},"data":[0,0,0,0,0,0,0,0,0,0,0,0,0,0,0,0,0,0,0,0,0,0,0,0,0,0,0,0,0,0,0,0,0,0,0,0,0,0,0,0,0,0,0,0,0,0,0,0,0,0,0,0,0,0,0,0,0,0,-9.1574,-9.1576,0,-9.177,-9.1772,-9.1774,-9.1709,-9.1705,-9.1701,-9.1697,-9.1889,-9.1898,-9.1906,0,0,0,0,0,0,0,0,0,0,0,0,0,-9.1138,-9.1147,-9.1574,-9.1577,-9.1579,-9.1769,-9.1772,-9.1775,-9.171,-9.1705,-9.17,-9.1695,-9.1886,-9.1896,-9.1907,0,0,0,0,0,0,0,0,0,0,0,0,0,-9.133,-9.1149,-9.1574,-9.157,-9.1571,-9.1769,-9.1772,-9.1775,-9.1711,-9.1705,-9.1698,-9.1692,-9.1882,-9.1895,-9.1909,-9.2119,0,0,-9.195,-9.1956,0,0,0,0,0,0,0,0,-9.1319,-9.1346,-9.1568,-9.157,-9.1573,-9.1709,-9.1689,-9.189,-9.1713,-9.1658,-9.1697,-9.1689,-9.1833,-9.1851,-9.1901,-9.2128,-9.2137,-9.1951,-9.196,-9.1966,-9.1969,0,0,0,0,0,0,0,-9.1306,-9.1337,-9.1651,-9.1571,-9.1574,-9.1556,-9.1576,-9.1727,-9.1778,-9.1662,-9.1658,-9.1682,-9.1833,-9.1888,-9.1905,-9.2139,-9.1951,-9.1963,-9.1972,-9.1977,-9.2551,-9.2557,0,0,0,0,0,0,-9.1292,-9.1326,-9.1645,-9.1657,-9.1428,-9.1569,-9.1592,-9.1671,-9.1777,-9.1787,-9.1688,-9.1679,-9.1868,-9.1889,-9.1911,-9.2166,-9.1965,-9.1978,-9.1986,-9.2544,-9.2552,-9.256,0,0,0,0,0,0,-9.1283,-9.1321,-9.1637,-9.1491,-9.153,-9.1584,-9.1673,-9.1679,-9.1733,-9.1796,-9.1804,-9.1734,-9.1864,-9.1892,-9.2069,-9.2172,-9.1984,-9.1997,-9.2535,-9.2546,-9.2556,-9.2676,0,0,0,0,0,0,-9.1271,-9.1318,-9.14,-9.1493,-9.1538,-9.1794,-9.168,-9.1687,-9.1758,-9.1748,-9.1842,-9.1852,-9.1861,-9.2049,-9.2083,-9.2187,-9.2007,-9.2526,-9.254,-9.2553,-9.2664,-9.269,-9.2712,0,0,0,0,0,-9.1256,-9.1424,-9.1405,-9.1444,-9.1642,-9.18,-9.1825,-9.1835,-9.1766,-9.1848,-9.1889,-9.1848,-9.2155,-9.2068,-9.2105,-9.2215,-9.252,-9.2536,-9.2552,-9.2652,-9.2685,-9.2712,0,0,0,0,0,0,-9.1338,-9.1436,-9.1416,-9.162,-9.1703,-9.1789,-9.1892,-9.1868,-9.197,-9.1956,-9.1961,-9.1983,-9.2165,-9.2207,-9.2108,-9.2425,-9.2327,-9.2351,-9.2391,-9.2422,-9.2446,-9.2432,-9.2018,0,0,0,0,0,-9.1381,-9.1504,-9.1581,-9.1754,-9.1797,-9.1838,-9.1907,-9.1908,-9.1992,-9.2026,-9.2079,-9.2161,-9.2276,-9.2351,-9.246,-9.2669,-9.2689,-9.2763,-9.2788,-9.2808,-9.2828,-9.2943,-9.2977,-9.2612,-9.2612,-9.2612,0,0,-9.1469,-9.1537,-9.1614,-9.1772,-9.1836,-9.1962,-9.1867,-9.2003,-9.2096,-9.2046,-9.2217,-9.226,-9.2351,-9.2545,-9.2633,-9.2586,-9.2934,-9.2828,-9.2843,-9.2853,-9.2963,-9.2998,-9.3028,-9.2623,-9.2621,-9.262,0,0,-9.1693,-9.1758,-9.191,-9.1977,-9.2077,-9.2103,-9.214,-9.2231,-9.2258,-9.2431,-9.2397,-9.2506,-9.2703,-9.277,-9.283,-9.3084,-9.305,-9.3119,-9.3246,-9.3358,-9.3387,-9.3412,-9.3503,-9.3536,-9.3139,-9.3139,-9.314,0,-9.1789,-9.1979,-9.199,-9.2131,-9.2201,-9.2165,-9.2319,-9.2382,-9.2511,-9.256,-9.2506,-9.2755,-9.2813,-9.3024,-9.3086,-9.3136,-9.3177,-9.3108,-9.3383,-9.3408,-9.3432,-9.3519,-9.3553,-9.3147,-9.3146,-9.3145,-9.3145,0,-9.2093,-9.2225,-9.2335,-9.2465,-9.2548,-9.2694,-9.2725,-9.2808,-9.2802,-9.2834,-9.301,-9.308,-9.3204,-9.3254,-9.3248,-9.3464,-9.3432,-9.338,-9.3282,-9.3475,-9.3556,-9.3589,-9.3158,-9.3155,-9.3153,-9.3151,0,0,-9.2373,-9.251,-9.255,-9.2609,-9.2718,-9.2819,-9.2963,-9.3087,-9.3158,-9.3249,-9.3369,-9.3539,-9.3493,-9.3561,-9.3562,-9.3661,-9.3858,-9.3597,-9.3599,-9.3644,-9.4102,-9.414,-9.4179,-9.3837,-9.3844,-9.3849,-9.4094,0,-9.2607,-9.2864,-9.2879,-9.3111,-9.3233,-9.3202,-9.3328,-9.3407,-9.3442,-9.3549,-9.3585,-9.3706,-9.3635,-9.3677,-9.3773,-9.3814,-9.395,-9.3796,-9.3948,-9.3953,-9.3927,-9.4221,-9.4262,-9.449,-9.4126,-9.4132,-9.4135,0,-9.2914,-9.3019,-9.3264,-9.3358,-9.3409,-9.3522,-9.3638,-9.3742,-9.3831,-9.3849,-9.3927,-9.3915,-9.4062,-9.3959,-9.416,-9.4056,-9.4118,-9.4148,-9.4157,-9.4172,-9.4056,-9.4243,-9.4563,-9.4597,-9.4186,-9.4182,-9.4178,0,-9.3095,-9.3296,-9.347,-9.3521,-9.3635,-9.3715,-9.3765,-9.3849,-9.3923,-9.4024,-9.4072,-9.4187,-9.425,-9.4338,-9.4358,-9.4281,-9.4559,-9.4458,-9.4577,-9.4577,-9.4637,-9.4633,-9.4971,-9.4677,-9.4677,-9.4676,-9.4675,0,-9.3355,-9.3506,-9.3553,-9.366,-9.3828,-9.3844,-9.401,-9.4054,-9.4129,-9.4243,-9.4222,-9.4328,-9.4347,-9.4457,-9.4473,-9.4638,-9.4666,-9.4683,-9.4686,-9.4686,-9.4684,-9.4726,-9.4711,-9.4685,-9.4683,-9.4682,-9.468,0,-9.3585,-9.3623,-9.381,-9.3903,-9.393,-9.4051,-9.4129,-9.4231,-9.4264,-9.4408,-9.4442,-9.4493,-9.4622,-9.4651,-9.4802,-9.4813,-9.5009,-9.4995,-9.498,-9.4979,-9.5097,-9.5085,-9.5475,-9.5527,-9.5199,-9.5202,-9.5204,0,-9.3748,-9.3865,-9.3972,-9.4049,-9.4104,-9.4227,-9.4304,-9.4323,-9.4404,-9.4516,-9.4604,-9.4732,-9.4835,-9.5042,-9.509,-9.5207,-9.5196,-9.5325,-9.5213,-9.521,-9.5199,-9.5192,-9.5203,-9.5345,-9.5349,-9.5352,-9.5354,0,-9.4035,-9.4049,-9.4162,-9.4284,-9.4377,-9.4472,-9.4563,-9.4626,-9.4658,-9.4749,-9.4883,-9.4963,-9.5121,-9.5247,-9.5365,-9.5413,-9.539,-9.5389,-9.5423,-9.5424,-9.5411,-9.542,-9.5038,-9.538,-9.5377,-9.5375,-9.5374,-9.5373,-9.4237,-9.434,-9.4433,-9.456,-9.4631,-9.4718,-9.4819,-9.4866,-9.4979,-9.5111,-9.5115,-9.5261,-9.5347,-9.5503,-9.556,-9.5673,-9.5633,-9.5682,-9.5694,-9.5706,-9.5717,-9.5394,-9.5694,-9.5693,-9.5693,-9.5692,-9.5692,0,-9.4523,-9.4582,-9.4699,-9.4829,-9.493,-9.4902,-9.5001,-9.5086,-9.5216,-9.5301,-9.5404,-9.5559,-9.5682,-9.5742,-9.5863,-9.5942,-9.5934,-9.5974,-9.5968,-9.598,-9.5746,-9.5705,-9.5978,-9.5978,-9.5978,-9.5978,-9.5978,-9.5978,-9.4683,-9.4857,-9.4882,-9.509,-9.5147,-9.5293,-9.5352,-9.5431,-9.55,-9.5674,-9.5778,-9.5817,-9.5892,-9.602,-9.6131,-9.6145,-9.6191,-9.6236,-9.6245,-9.6025,-9.5996,-9.5968,-9.593,-9.6246,-9.6246,-9.6469,-9.6471,-9.6473]}]]